User: anonymous   Login
Location: Unspecified
(0.0000°N, 0.0000°E)
Time: 03:32:50
(UTC+00:00)
Language:

Triad OI-1X - Orbit

View from above orbital plane
View from above orbital plane
View from above satellite
View from above satellite

Ground track
Ground track

The orbit data is extracted from the following two-line orbital elements,

1  6173U 72069A   17112.91325101 +.00000206 +00000-0 +50566-4 0  9999
2  6173 089.8747 230.9893 0050469 280.5415 197.0300 14.48792229346310
Epoch (UTC): 22 April 2017 21:55:04
Eccentricity: 0.0050469
inclination: 89.8747°
perigee height: 694 km
apogee height: 765 km
right ascension of ascending node: 230.9893°
argument of perigee: 280.5415°
revolutions per day: 14.48792229
mean anomaly at epoch: 197.0300°
orbit number at epoch: 34631

The dashed part of the orbit path shows where the satellite is in the earth's shadow,  

DLR